Time,TemperatureF,DewpointF,PressureIn,WindDirection,WindDirectionDegrees,WindSpeedMPH,WindSpeedGustMPH,Humidity,HourlyPrecipIn,Conditions,Clouds,dailyrainin,SoftwareType,DateUTC
2013-02-17 00:00:00,28.1,19.3,29.73,NNW,327,2.0,8.0,69,0.00,,,0.04,WeatherCatV1.02B3,2013-02-17 05:00:00,
2013-02-17 00:05:00,27.9,19.7,29.72,NW,311,0.0,6.0,71,0.00,,,0.00,WeatherCatV1.02B3,2013-02-17 05:05:00,
2013-02-17 00:10:00,27.7,19.9,29.70,NNW,336,7.0,7.0,72,0.00,,,0.00,WeatherCatV1.02B3,2013-02-17 05:10:00,
2013-02-17 00:15:00,27.5,20.3,29.70,NW,321,2.0,7.0,74,0.00,,,0.00,WeatherCatV1.02B3,2013-02-17 05:15:00,
2013-02-17 00:20:00,27.2,20.7,29.71,NNE,33,1.0,6.0,76,0.00,,,0.00,WeatherCatV1.02B3,2013-02-17 05:20:00,
2013-02-17 00:25:00,26.8,20.9,29.71,WNW,302,8.0,11.0,78,0.00,,,0.00,WeatherCatV1.02B3,2013-02-17 05:25:00,
2013-02-17 00:30:00,26.4,20.8,29.71,North,355,1.0,8.0,79,0.00,,,0.00,WeatherCatV1.02B3,2013-02-17 05:30:00,
2013-02-17 00:35:00,26.2,20.9,29.71,North,9,2.0,6.0,80,0.00,,,0.00,WeatherCatV1.02B3,2013-02-17 05:35:00,
2013-02-17 00:40:00,26.1,20.8,29.70,North,9,3.0,8.0,80,0.00,,,0.00,WeatherCatV1.02B3,2013-02-17 05:40:00,
2013-02-17 00:45:00,26.0,20.7,29.70,North,5,0.0,7.0,80,0.00,,,0.00,WeatherCatV1.02B3,2013-02-17 05:45:00,
2013-02-17 00:50:00,25.8,20.2,29.73,North,9,0.0,11.0,79,0.00,,,0.00,WeatherCatV1.02B3,2013-02-17 05:50:00,
2013-02-17 00:55:00,25.8,20.2,29.73,NNW,337,3.0,4.0,79,0.00,,,0.00,WeatherCatV1.02B3,2013-02-17 05:55:00,
2013-02-17 01:00:00,25.7,19.8,29.73,North,9,4.0,8.0,78,0.00,,,0.00,WeatherCatV1.02B3,2013-02-17 06:00:00,
2013-02-17 01:05:00,25.6,20.0,29.72,NNE,17,5.0,5.0,79,0.00,,,0.00,WeatherCatV1.02B3,2013-02-17 06:05:00,
2013-02-17 01:10:00,25.4,19.8,29.72,NW,309,3.0,6.0,79,0.00,,,0.00,WeatherCatV1.02B3,2013-02-17 06:10:00,
2013-02-17 01:15:00,25.3,20.0,29.72,NNE,28,4.0,8.0,80,0.00,,,0.00,WeatherCatV1.02B3,2013-02-17 06:15:00,
2013-02-17 01:20:00,25.2,19.9,29.72,NNE,26,0.0,8.0,80,0.00,,,0.00,WeatherCatV1.02B3,2013-02-17 06:20:00,
2013-02-17 01:25:00,25.0,20.0,29.70,North,5,5.0,9.0,81,0.00,,,0.00,WeatherCatV1.02B3,2013-02-17 06:25:00,
2013-02-17 01:30:00,24.8,19.8,29.70,North,9,2.0,5.0,81,0.00,,,0.00,WeatherCatV1.02B3,2013-02-17 06:30:00,
2013-02-17 01:35:00,24.7,19.7,29.69,NNE,26,4.0,7.0,81,0.00,,,0.00,WeatherCatV1.02B3,2013-02-17 06:35:00,
2013-02-17 01:40:00,24.5,19.8,29.68,NNE,18,5.0,10.0,82,0.00,,,0.00,WeatherCatV1.02B3,2013-02-17 06:40:00,
2013-02-17 01:45:00,24.3,19.0,29.69,NNW,339,2.0,8.0,80,0.00,,,0.00,WeatherCatV1.02B3,2013-02-17 06:45:00,
2013-02-17 01:50:00,24.2,18.6,29.69,WNW,293,0.0,4.0,79,0.00,,,0.00,WeatherCatV1.02B3,2013-02-17 06:50:00,
2013-02-17 01:55:00,24.0,18.5,29.69,NE,39,2.0,11.0,79,0.00,,,0.00,WeatherCatV1.02B3,2013-02-17 06:55:00,
2013-02-17 02:00:00,23.8,18.3,29.68,NNE,16,1.0,7.0,79,0.00,,,0.00,WeatherCatV1.02B3,2013-02-17 07:00:00,
2013-02-17 02:05:00,23.6,18.1,29.67,NW,326,1.0,6.0,79,0.00,,,0.00,WeatherCatV1.02B3,2013-02-17 07:05:00,
2013-02-17 02:10:00,23.5,18.0,29.68,NNW,328,9.0,11.0,79,0.00,,,0.00,WeatherCatV1.02B3,2013-02-17 07:10:00,
2013-02-17 02:15:00,23.4,17.6,29.68,North,355,6.0,6.0,78,0.00,,,0.00,WeatherCatV1.02B3,2013-02-17 07:15:00,
2013-02-17 02:20:00,23.3,17.2,29.68,North,0,2.0,6.0,77,0.00,,,0.00,WeatherCatV1.02B3,2013-02-17 07:20:00,
2013-02-17 02:25:00,23.2,16.8,29.68,WNW,302,0.0,8.0,76,0.00,,,0.00,WeatherCatV1.02B3,2013-02-17 07:25:00,
2013-02-17 02:30:00,23.2,16.5,29.69,ENE,65,0.0,6.0,75,0.00,,,0.00,WeatherCatV1.02B3,2013-02-17 07:30:00,
2013-02-17 02:35:00,23.2,16.5,29.68,NNW,332,4.0,9.0,75,0.00,,,0.00,WeatherCatV1.02B3,2013-02-17 07:35:00,
2013-02-17 02:40:00,23.2,16.5,29.68,NW,308,3.0,9.0,75,0.00,,,0.00,WeatherCatV1.02B3,2013-02-17 07:40:00,
2013-02-17 02:45:00,23.1,16.4,29.67,NNW,336,5.0,7.0,75,0.00,,,0.00,WeatherCatV1.02B3,2013-02-17 07:45:00,
2013-02-17 02:50:00,23.0,17.8,29.67,WNW,302,8.0,10.0,80,0.00,,,0.00,WeatherCatV1.02B3,2013-02-17 07:50:00,
2013-02-17 02:55:00,23.0,15.7,29.67,NE,38,7.0,7.0,73,0.00,,,0.00,WeatherCatV1.02B3,2013-02-17 07:55:00,
2013-02-17 03:00:00,23.0,15.3,29.65,NNE,28,1.0,15.0,72,0.00,,,0.00,WeatherCatV1.02B3,2013-02-17 08:00:00,
2013-02-17 03:05:00,23.0,15.7,29.65,North,0,2.0,10.0,73,0.00,,,0.00,WeatherCatV1.02B3,2013-02-17 08:05:00,
2013-02-17 03:10:00,22.9,15.6,29.64,WNW,291,3.0,9.0,73,0.00,,,0.00,WeatherCatV1.02B3,2013-02-17 08:10:00,
2013-02-17 03:15:00,22.8,15.8,29.64,NNE,28,2.0,5.0,74,0.00,,,0.00,WeatherCatV1.02B3,2013-02-17 08:15:00,
2013-02-17 03:20:00,22.8,15.8,29.63,WNW,300,7.0,10.0,74,0.00,,,0.00,WeatherCatV1.02B3,2013-02-17 08:20:00,
2013-02-17 03:25:00,22.6,15.6,29.64,NNW,344,4.0,12.0,74,0.00,,,0.00,WeatherCatV1.02B3,2013-02-17 08:25:00,
2013-02-17 03:30:00,22.4,16.0,29.64,WNW,302,1.0,12.0,76,0.00,,,0.00,WeatherCatV1.02B3,2013-02-17 08:30:00,
2013-02-17 03:35:00,22.2,15.8,29.64,WNW,282,0.0,4.0,76,0.00,,,0.00,WeatherCatV1.02B3,2013-02-17 08:35:00,
2013-02-17 03:40:00,22.0,15.9,29.64,NW,308,15.0,20.0,77,0.00,,,0.00,WeatherCatV1.02B3,2013-02-17 08:40:00,
2013-02-17 03:45:00,21.8,16.0,29.64,NW,323,7.0,8.0,78,0.00,,,0.00,WeatherCatV1.02B3,2013-02-17 08:45:00,
2013-02-17 03:50:00,21.6,16.1,29.64,NNE,13,2.0,14.0,79,0.00,,,0.00,WeatherCatV1.02B3,2013-02-17 08:50:00,
2013-02-17 03:55:00,21.5,16.3,29.64,NNW,335,7.0,14.0,80,0.00,,,0.00,WeatherCatV1.02B3,2013-02-17 08:55:00,
2013-02-17 04:00:00,21.3,16.1,29.64,NE,50,1.0,13.0,80,0.00,,,0.00,WeatherCatV1.02B3,2013-02-17 09:00:00,
2013-02-17 04:05:00,21.1,16.2,29.64,NNW,348,12.0,14.0,81,0.00,,,0.00,WeatherCatV1.02B3,2013-02-17 09:05:00,
2013-02-17 04:10:00,20.9,15.7,29.63,NW,323,1.0,10.0,80,0.00,,,0.00,WeatherCatV1.02B3,2013-02-17 09:10:00,
2013-02-17 04:15:00,20.9,16.0,29.63,NNW,328,8.0,10.0,81,0.00,,,0.00,WeatherCatV1.02B3,2013-02-17 09:15:00,
2013-02-17 04:20:00,20.9,16.0,29.62,WNW,301,3.0,9.0,81,0.00,,,0.00,WeatherCatV1.02B3,2013-02-17 09:20:00,
2013-02-17 04:25:00,20.9,16.0,29.63,West,270,1.0,8.0,81,0.00,,,0.00,WeatherCatV1.02B3,2013-02-17 09:25:00,
2013-02-17 04:30:00,20.9,16.0,29.62,WNW,288,2.0,8.0,81,0.00,,,0.00,WeatherCatV1.02B3,2013-02-17 09:30:00,
2013-02-17 04:35:00,20.9,15.7,29.62,North,349,6.0,9.0,80,0.00,,,0.00,WeatherCatV1.02B3,2013-02-17 09:35:00,
2013-02-17 04:40:00,20.9,15.7,29.63,NNW,340,3.0,9.0,80,0.00,,,0.00,WeatherCatV1.02B3,2013-02-17 09:40:00,
2013-02-17 04:45:00,20.9,15.4,29.63,West,266,4.0,6.0,79,0.00,,,0.00,WeatherCatV1.02B3,2013-02-17 09:45:00,
2013-02-17 04:50:00,20.9,16.0,29.63,North,350,9.0,12.0,81,0.00,,,0.00,WeatherCatV1.02B3,2013-02-17 09:50:00,
2013-02-17 04:55:00,20.7,16.4,29.62,NW,317,0.0,8.0,83,0.00,,,0.00,WeatherCatV1.02B3,2013-02-17 09:55:00,
2013-02-17 05:00:00,20.4,16.1,29.62,WNW,285,2.0,3.0,83,0.00,,,0.00,WeatherCatV1.02B3,2013-02-17 10:00:00,
2013-02-17 05:05:00,20.3,16.3,29.61,NNE,13,2.0,11.0,84,0.00,,,0.00,WeatherCatV1.02B3,2013-02-17 10:05:00,
2013-02-17 05:10:00,20.2,16.4,29.61,North,5,2.0,7.0,85,0.00,,,0.00,WeatherCatV1.02B3,2013-02-17 10:10:00,
2013-02-17 05:15:00,20.0,16.8,29.61,North,349,4.0,10.0,87,0.00,,,0.00,WeatherCatV1.02B3,2013-02-17 10:15:00,
2013-02-17 05:20:00,19.9,16.9,29.60,West,279,2.0,13.0,88,0.00,,,0.00,WeatherCatV1.02B3,2013-02-17 10:20:00,
2013-02-17 05:25:00,19.7,17.0,29.59,NW,306,3.0,10.0,89,0.00,,,0.00,WeatherCatV1.02B3,2013-02-17 10:25:00,
2013-02-17 05:30:00,19.4,16.7,29.60,SW,234,2.0,6.0,89,0.00,,,0.00,WeatherCatV1.02B3,2013-02-17 10:30:00,
2013-02-17 05:35:00,19.2,16.8,29.61,WNW,294,5.0,8.0,90,0.00,,,0.00,WeatherCatV1.02B3,2013-02-17 10:35:00,
2013-02-17 05:40:00,19.1,16.7,29.61,NW,325,7.0,11.0,90,0.00,,,0.00,WeatherCatV1.02B3,2013-02-17 10:40:00,
2013-02-17 05:45:00,18.9,16.5,29.61,NW,313,5.0,10.0,90,0.00,,,0.00,WeatherCatV1.02B3,2013-02-17 10:45:00,
2013-02-17 05:50:00,18.8,16.4,29.59,NNW,329,2.0,17.0,90,0.00,,,0.00,WeatherCatV1.02B3,2013-02-17 10:50:00,
2013-02-17 05:55:00,18.8,16.4,29.59,NW,309,0.0,1.0,90,0.00,,,0.00,WeatherCatV1.02B3,2013-02-17 10:55:00,
2013-02-17 06:00:00,18.7,16.5,29.58,NW,314,6.0,10.0,91,0.00,,,0.00,WeatherCatV1.02B3,2013-02-17 11:00:00,
2013-02-17 06:05:00,18.6,16.2,29.58,North,5,3.0,7.0,90,0.00,,,0.00,WeatherCatV1.02B3,2013-02-17 11:05:00,
2013-02-17 06:10:00,18.5,16.1,29.58,NE,37,1.0,8.0,90,0.00,,,0.00,WeatherCatV1.02B3,2013-02-17 11:10:00,
2013-02-17 06:15:00,18.4,16.0,29.57,NW,305,5.0,12.0,90,0.00,,,0.00,WeatherCatV1.02B3,2013-02-17 11:15:00,
2013-02-17 06:20:00,18.3,15.9,29.57,WNW,289,0.0,11.0,90,0.00,,,0.00,WeatherCatV1.02B3,2013-02-17 11:20:00,
2013-02-17 06:25:00,18.2,15.8,29.56,NW,315,7.0,12.0,90,0.00,,,0.00,WeatherCatV1.02B3,2013-02-17 11:25:00,
2013-02-17 06:30:00,18.1,15.7,29.56,WNW,301,13.0,13.0,90,0.00,,,0.00,WeatherCatV1.02B3,2013-02-17 11:30:00,
2013-02-17 06:35:00,18.0,15.6,29.56,NW,323,4.0,6.0,90,0.00,,,0.00,WeatherCatV1.02B3,2013-02-17 11:35:00,
2013-02-17 06:40:00,18.0,15.6,29.57,NNW,336,3.0,8.0,90,0.00,,,0.00,WeatherCatV1.02B3,2013-02-17 11:40:00,
2013-02-17 06:45:00,17.9,15.5,29.56,West,277,5.0,10.0,90,0.00,,,0.00,WeatherCatV1.02B3,2013-02-17 11:45:00,
2013-02-17 06:50:00,17.8,15.4,29.56,WNW,300,0.0,16.0,90,0.00,,,0.00,WeatherCatV1.02B3,2013-02-17 11:50:00,
2013-02-17 06:55:00,17.7,15.3,29.56,NNW,336,0.0,16.0,90,0.00,,,0.00,WeatherCatV1.02B3,2013-02-17 11:55:00,
2013-02-17 07:00:00,17.7,15.3,29.56,NW,322,2.0,20.0,90,0.00,,,0.00,WeatherCatV1.02B3,2013-02-17 12:00:00,
2013-02-17 07:05:00,17.6,15.2,29.55,WNW,298,4.0,12.0,90,0.00,,,0.00,WeatherCatV1.02B3,2013-02-17 12:05:00,
2013-02-17 07:10:00,17.6,15.2,29.55,WNW,298,9.0,15.0,90,0.00,,,0.00,WeatherCatV1.02B3,2013-02-17 12:10:00,
2013-02-17 07:15:00,17.6,15.4,29.54,WNW,300,6.0,6.0,91,0.00,,,0.00,WeatherCatV1.02B3,2013-02-17 12:15:00,
2013-02-17 07:20:00,17.6,15.4,29.54,NW,311,1.0,12.0,91,0.00,,,0.00,WeatherCatV1.02B3,2013-02-17 12:20:00,
2013-02-17 07:25:00,17.6,15.2,29.54,North,350,4.0,12.0,90,0.00,,,0.00,WeatherCatV1.02B3,2013-02-17 12:25:00,
2013-02-17 07:30:00,17.5,15.1,29.54,WNW,294,9.0,15.0,90,0.00,,,0.00,WeatherCatV1.02B3,2013-02-17 12:30:00,
2013-02-17 07:35:00,17.4,15.0,29.54,North,10,6.0,16.0,90,0.00,,,0.00,WeatherCatV1.02B3,2013-02-17 12:35:00,
2013-02-17 07:40:00,17.3,14.9,29.54,WNW,299,4.0,13.0,90,0.00,,,0.00,WeatherCatV1.02B3,2013-02-17 12:40:00,
2013-02-17 07:45:00,17.3,14.9,29.54,WNW,303,9.0,9.0,90,0.00,,,0.00,WeatherCatV1.02B3,2013-02-17 12:45:00,
2013-02-17 07:50:00,17.2,14.8,29.53,North,11,11.0,12.0,90,0.00,,,0.00,WeatherCatV1.02B3,2013-02-17 12:50:00,
2013-02-17 07:55:00,17.2,14.8,29.53,North,9,7.0,14.0,90,0.00,,,0.00,WeatherCatV1.02B3,2013-02-17 12:55:00,
2013-02-17 08:00:00,17.1,14.7,29.53,WNW,291,7.0,15.0,90,0.00,,,0.00,WeatherCatV1.02B3,2013-02-17 13:00:00,
2013-02-17 08:05:00,17.1,14.7,29.52,WNW,285,7.0,17.0,90,0.00,,,0.00,WeatherCatV1.02B3,2013-02-17 13:05:00,
2013-02-17 08:10:00,17.1,14.7,29.52,NW,313,13.0,13.0,90,0.00,,,0.00,WeatherCatV1.02B3,2013-02-17 13:10:00,
2013-02-17 08:15:00,17.0,14.6,29.52,West,269,10.0,16.0,90,0.00,,,0.00,WeatherCatV1.02B3,2013-02-17 13:15:00,
2013-02-17 08:20:00,17.0,14.6,29.51,WNW,290,8.0,15.0,90,0.00,,,0.00,WeatherCatV1.02B3,2013-02-17 13:20:00,
2013-02-17 08:25:00,17.0,14.6,29.51,NW,305,8.0,17.0,90,0.00,,,0.00,WeatherCatV1.02B3,2013-02-17 13:25:00,
2013-02-17 08:30:00,17.0,14.6,29.51,NW,318,4.0,14.0,90,0.00,,,0.00,WeatherCatV1.02B3,2013-02-17 13:30:00,
2013-02-17 08:35:00,16.9,14.5,29.50,WNW,295,8.0,16.0,90,0.00,,,0.00,WeatherCatV1.02B3,2013-02-17 13:35:00,
2013-02-17 08:40:00,16.9,14.5,29.50,NW,312,9.0,18.0,90,0.00,,,0.00,WeatherCatV1.02B3,2013-02-17 13:40:00,
2013-02-17 08:45:00,16.9,14.5,29.50,NE,49,5.0,17.0,90,0.00,,,0.00,WeatherCatV1.02B3,2013-02-17 13:45:00,
2013-02-17 08:50:00,16.8,14.4,29.49,WNW,284,10.0,17.0,90,0.00,,,0.00,WeatherCatV1.02B3,2013-02-17 13:50:00,
2013-02-17 08:55:00,16.8,14.1,29.49,West,277,5.0,13.0,89,0.00,,,0.00,WeatherCatV1.02B3,2013-02-17 13:55:00,
2013-02-17 09:00:00,16.9,14.0,29.49,NNW,346,10.0,15.0,88,0.00,,,0.00,WeatherCatV1.02B3,2013-02-17 14:00:00,
2013-02-17 09:06:00,16.9,14.0,29.48,WNW,282,2.0,6.0,88,0.00,,,0.00,WeatherCatV1.02B3,2013-02-17 14:06:00,
2013-02-17 09:11:00,17.1,13.9,29.48,WNW,286,8.0,14.0,87,0.00,,,0.00,WeatherCatV1.02B3,2013-02-17 14:11:00,
2013-02-17 09:16:00,17.2,14.0,29.48,NW,313,5.0,10.0,87,0.00,,,0.00,WeatherCatV1.02B3,2013-02-17 14:16:00,
2013-02-17 09:21:00,17.4,13.9,29.47,WNW,302,10.0,11.0,86,0.00,,,0.00,WeatherCatV1.02B3,2013-02-17 14:21:00,
2013-02-17 09:26:00,17.6,13.6,29.47,NW,313,13.0,16.0,84,0.00,,,0.00,WeatherCatV1.02B3,2013-02-17 14:26:00,
2013-02-17 09:31:00,17.7,13.7,29.47,NW,326,2.0,7.0,84,0.00,,,0.00,WeatherCatV1.02B3,2013-02-17 14:31:00,
2013-02-17 09:36:00,17.9,13.6,29.47,NW,307,5.0,6.0,83,0.00,,,0.00,WeatherCatV1.02B3,2013-02-17 14:36:00,
2013-02-17 09:40:00,18.0,13.5,29.46,WNW,295,9.0,9.0,82,0.00,,,0.00,WeatherCatV1.02B3,2013-02-17 14:40:00,
2013-02-17 09:45:00,18.1,13.3,29.46,West,263,2.0,15.0,81,0.00,,,0.00,WeatherCatV1.02B3,2013-02-17 14:45:00,
2013-02-17 09:50:00,18.2,13.1,29.46,West,280,7.0,14.0,80,0.00,,,0.00,WeatherCatV1.02B3,2013-02-17 14:50:00,
2013-02-17 09:55:00,18.3,13.2,29.46,WNW,283,5.0,5.0,80,0.00,,,0.00,WeatherCatV1.02B3,2013-02-17 14:55:00,
2013-02-17 10:00:00,18.4,13.0,29.46,WNW,284,5.0,19.0,79,0.00,,,0.00,WeatherCatV1.02B3,2013-02-17 15:00:00,
2013-02-17 10:05:00,18.5,13.1,29.46,NNW,336,2.0,15.0,79,0.00,,,0.00,WeatherCatV1.02B3,2013-02-17 15:05:00,
2013-02-17 10:10:00,18.6,12.9,29.45,West,281,17.0,18.0,78,0.00,,,0.00,WeatherCatV1.02B3,2013-02-17 15:10:00,
2013-02-17 10:15:00,18.7,13.0,29.46,WNW,288,8.0,10.0,78,0.00,,,0.00,WeatherCatV1.02B3,2013-02-17 15:15:00,
2013-02-17 10:20:00,18.9,12.9,29.46,WNW,303,11.0,16.0,77,0.00,,,0.00,WeatherCatV1.02B3,2013-02-17 15:20:00,
2013-02-17 10:25:00,19.1,12.8,29.46,NW,319,2.0,7.0,76,0.00,,,0.00,WeatherCatV1.02B3,2013-02-17 15:25:00,
2013-02-17 10:30:00,19.4,12.2,29.46,NW,314,1.0,14.0,73,0.00,,,0.00,WeatherCatV1.02B3,2013-02-17 15:30:00,
2013-02-17 10:35:00,19.6,11.8,29.45,West,280,9.0,21.0,71,0.00,,,0.00,WeatherCatV1.02B3,2013-02-17 15:35:00,
2013-02-17 10:40:00,19.8,11.6,29.45,West,279,4.0,7.0,70,0.00,,,0.00,WeatherCatV1.02B3,2013-02-17 15:40:00,
2013-02-17 10:45:00,20.0,10.8,29.46,WNW,282,14.0,17.0,67,0.00,,,0.00,WeatherCatV1.02B3,2013-02-17 15:45:00,
2013-02-17 10:50:00,20.2,10.7,29.45,NW,322,6.0,16.0,66,0.00,,,0.00,WeatherCatV1.02B3,2013-02-17 15:50:00,
2013-02-17 10:55:00,20.4,10.9,29.45,West,277,0.0,14.0,66,0.00,,,0.00,WeatherCatV1.02B3,2013-02-17 15:55:00,
2013-02-17 11:00:00,20.6,10.7,29.45,WNW,300,8.0,8.0,65,0.00,,,0.00,WeatherCatV1.02B3,2013-02-17 16:00:00,
2013-02-17 11:05:00,20.8,10.6,29.45,WNW,291,4.0,14.0,64,0.00,,,0.00,WeatherCatV1.02B3,2013-02-17 16:05:00,
2013-02-17 11:12:00,20.9,10.0,29.45,WNW,291,11.0,20.0,62,0.00,,,0.00,WeatherCatV1.02B3,2013-02-17 16:12:00,
2013-02-17 11:17:00,21.0,9.7,29.45,North,10,9.0,14.0,61,0.00,,,0.00,WeatherCatV1.02B3,2013-02-17 16:17:00,
2013-02-17 11:22:00,21.1,9.8,29.45,WNW,301,9.0,21.0,61,0.00,,,0.00,WeatherCatV1.02B3,2013-02-17 16:22:00,
2013-02-17 11:27:00,21.3,10.0,29.45,West,276,15.0,22.0,61,0.00,,,0.00,WeatherCatV1.02B3,2013-02-17 16:27:00,
2013-02-17 11:32:00,21.3,9.6,29.45,WNW,302,15.0,20.0,60,0.00,,,0.00,WeatherCatV1.02B3,2013-02-17 16:32:00,
2013-02-17 11:37:00,21.3,10.0,29.45,WNW,286,6.0,16.0,61,0.00,,,0.00,WeatherCatV1.02B3,2013-02-17 16:37:00,
2013-02-17 11:42:00,21.5,9.8,29.45,West,273,10.0,14.0,60,0.00,,,0.00,WeatherCatV1.02B3,2013-02-17 16:42:00,
2013-02-17 11:47:00,21.6,9.1,29.45,WNW,291,17.0,18.0,58,0.00,,,0.00,WeatherCatV1.02B3,2013-02-17 16:47:00,
2013-02-17 11:52:00,21.6,9.9,29.45,WNW,300,13.0,16.0,60,0.00,,,0.00,WeatherCatV1.02B3,2013-02-17 16:52:00,
2013-02-17 11:57:00,21.7,8.8,29.45,WNW,292,12.0,19.0,57,0.00,,,0.00,WeatherCatV1.02B3,2013-02-17 16:57:00,
2013-02-17 12:02:00,21.7,8.5,29.45,WNW,297,7.0,20.0,56,0.00,,,0.00,WeatherCatV1.02B3,2013-02-17 17:02:00,
2013-02-17 12:07:00,21.6,8.8,29.45,West,279,8.0,24.0,57,0.00,,,0.00,WeatherCatV1.02B3,2013-02-17 17:07:00,
2013-02-17 12:12:00,21.6,8.4,29.45,WNW,302,5.0,22.0,56,0.00,,,0.00,WeatherCatV1.02B3,2013-02-17 17:12:00,
2013-02-17 12:17:00,21.5,8.3,29.45,WNW,288,6.0,17.0,56,0.00,,,0.00,WeatherCatV1.02B3,2013-02-17 17:17:00,
2013-02-17 12:24:00,21.4,8.2,29.45,NNW,329,0.0,5.0,56,0.00,,,0.00,WeatherCatV1.02B3,2013-02-17 17:24:00,
2013-02-17 12:29:00,21.4,8.2,29.45,WNW,301,8.0,18.0,56,0.00,,,0.00,WeatherCatV1.02B3,2013-02-17 17:29:00,
2013-02-17 12:34:00,21.5,7.9,29.45,WNW,286,15.0,23.0,55,0.00,,,0.00,WeatherCatV1.02B3,2013-02-17 17:34:00,
2013-02-17 12:39:00,21.4,8.6,29.45,WNW,286,5.0,14.0,57,0.00,,,0.00,WeatherCatV1.02B3,2013-02-17 17:39:00,
2013-02-17 12:45:00,21.2,8.0,29.46,West,269,11.0,15.0,56,0.00,,,0.00,WeatherCatV1.02B3,2013-02-17 17:45:00,
2013-02-17 12:50:00,21.1,7.9,29.46,West,277,7.0,18.0,56,0.00,,,0.00,WeatherCatV1.02B3,2013-02-17 17:50:00,
2013-02-17 12:55:00,20.9,7.7,29.46,WNW,286,9.0,17.0,56,0.00,,,0.00,WeatherCatV1.02B3,2013-02-17 17:55:00,
2013-02-17 13:00:00,20.8,7.2,29.46,NW,308,20.0,21.0,55,0.00,,,0.00,WeatherCatV1.02B3,2013-02-17 18:00:00,
2013-02-17 13:05:00,20.9,7.7,29.46,NW,313,7.0,12.0,56,0.00,,,0.00,WeatherCatV1.02B3,2013-02-17 18:05:00,
2013-02-17 13:10:00,21.1,7.1,29.46,NW,319,8.0,18.0,54,0.00,,,0.00,WeatherCatV1.02B3,2013-02-17 18:10:00,
2013-02-17 13:15:00,21.0,7.0,29.46,NW,325,12.0,12.0,54,0.00,,,0.00,WeatherCatV1.02B3,2013-02-17 18:15:00,
2013-02-17 13:20:00,21.1,7.1,29.46,NW,310,14.0,18.0,54,0.00,,,0.00,WeatherCatV1.02B3,2013-02-17 18:20:00,
2013-02-17 13:25:00,20.9,6.9,29.47,WNW,295,17.0,24.0,54,0.00,,,0.00,WeatherCatV1.02B3,2013-02-17 18:25:00,
2013-02-17 13:30:00,20.8,6.4,29.47,WNW,287,19.0,26.0,53,0.00,,,0.00,WeatherCatV1.02B3,2013-02-17 18:30:00,
2013-02-17 13:35:00,20.7,6.7,29.47,NW,312,10.0,16.0,54,0.00,,,0.00,WeatherCatV1.02B3,2013-02-17 18:35:00,
2013-02-17 13:40:00,20.6,6.2,29.48,West,280,9.0,20.0,53,0.00,,,0.00,WeatherCatV1.02B3,2013-02-17 18:40:00,
2013-02-17 13:45:00,20.6,6.6,29.48,WSW,248,8.0,14.0,54,0.00,,,0.00,WeatherCatV1.02B3,2013-02-17 18:45:00,
2013-02-17 13:50:00,20.5,6.1,29.48,NW,309,18.0,18.0,53,0.00,,,0.00,WeatherCatV1.02B3,2013-02-17 18:50:00,
2013-02-17 13:55:00,20.7,5.9,29.48,West,272,8.0,17.0,52,0.00,,,0.00,WeatherCatV1.02B3,2013-02-17 18:55:00,
2013-02-17 14:00:00,20.7,5.9,29.48,NW,304,14.0,22.0,52,0.00,,,0.00,WeatherCatV1.02B3,2013-02-17 19:00:00,
2013-02-17 14:05:00,20.7,5.9,29.48,NW,324,11.0,22.0,52,0.00,,,0.00,WeatherCatV1.02B3,2013-02-17 19:05:00,
2013-02-17 14:10:00,20.9,6.1,29.49,NW,304,13.0,13.0,52,0.00,,,0.00,WeatherCatV1.02B3,2013-02-17 19:10:00,
2013-02-17 14:15:00,20.9,5.2,29.49,WNW,286,12.0,14.0,50,0.00,,,0.00,WeatherCatV1.02B3,2013-02-17 19:15:00,
2013-02-17 14:20:00,21.0,5.3,29.49,WNW,290,5.0,10.0,50,0.00,,,0.00,WeatherCatV1.02B3,2013-02-17 19:20:00,
2013-02-17 14:25:00,21.2,5.9,29.49,NW,315,8.0,14.0,51,0.00,,,0.00,WeatherCatV1.02B3,2013-02-17 19:25:00,
2013-02-17 14:30:00,21.2,5.5,29.49,NW,305,8.0,17.0,50,0.00,,,0.00,WeatherCatV1.02B3,2013-02-17 19:30:00,
2013-02-17 14:35:00,21.1,5.4,29.49,North,355,3.0,14.0,50,0.00,,,0.00,WeatherCatV1.02B3,2013-02-17 19:35:00,
2013-02-17 14:40:00,21.1,5.8,29.50,West,281,20.0,27.0,51,0.00,,,0.00,WeatherCatV1.02B3,2013-02-17 19:40:00,
2013-02-17 14:45:00,21.1,5.8,29.49,WNW,295,7.0,27.0,51,0.00,,,0.00,WeatherCatV1.02B3,2013-02-17 19:45:00,
2013-02-17 14:50:00,21.2,5.9,29.50,WNW,283,8.0,22.0,51,0.00,,,0.00,WeatherCatV1.02B3,2013-02-17 19:50:00,
2013-02-17 14:55:00,21.2,5.9,29.50,West,281,7.0,16.0,51,0.00,,,0.00,WeatherCatV1.02B3,2013-02-17 19:55:00,
2013-02-17 15:00:00,21.2,5.5,29.50,WNW,284,13.0,20.0,50,0.00,,,0.00,WeatherCatV1.02B3,2013-02-17 20:00:00,
2013-02-17 15:05:00,21.2,5.5,29.50,WNW,289,12.0,16.0,50,0.00,,,0.00,WeatherCatV1.02B3,2013-02-17 20:05:00,
2013-02-17 15:10:00,21.3,5.6,29.50,West,261,14.0,18.0,50,0.00,,,0.00,WeatherCatV1.02B3,2013-02-17 20:10:00,
2013-02-17 15:15:00,21.3,5.6,29.51,West,275,5.0,19.0,50,0.00,,,0.00,WeatherCatV1.02B3,2013-02-17 20:15:00,
2013-02-17 15:20:00,21.4,5.2,29.51,WNW,297,9.0,25.0,49,0.00,,,0.00,WeatherCatV1.02B3,2013-02-17 20:20:00,
2013-02-17 15:25:00,21.4,5.7,29.51,WNW,294,11.0,27.0,50,0.00,,,0.00,WeatherCatV1.02B3,2013-02-17 20:25:00,
2013-02-17 15:30:00,21.2,5.1,29.51,NNW,336,17.0,29.0,49,0.00,,,0.00,WeatherCatV1.02B3,2013-02-17 20:30:00,
2013-02-17 15:37:00,21.2,5.5,29.52,NW,324,16.0,16.0,50,0.00,,,0.00,WeatherCatV1.02B3,2013-02-17 20:37:00,
2013-02-17 15:42:00,21.3,5.6,29.52,West,274,7.0,20.0,50,0.00,,,0.00,WeatherCatV1.02B3,2013-02-17 20:42:00,
2013-02-17 15:47:00,21.3,5.2,29.52,WNW,300,8.0,10.0,49,0.00,,,0.00,WeatherCatV1.02B3,2013-02-17 20:47:00,
2013-02-17 15:52:00,21.4,5.2,29.52,WNW,282,12.0,19.0,49,0.00,,,0.00,WeatherCatV1.02B3,2013-02-17 20:52:00,
2013-02-17 15:57:00,21.5,5.3,29.53,WNW,293,9.0,11.0,49,0.00,,,0.00,WeatherCatV1.02B3,2013-02-17 20:57:00,
2013-02-17 16:02:00,21.6,5.4,29.53,NW,315,5.0,15.0,49,0.00,,,0.00,WeatherCatV1.02B3,2013-02-17 21:02:00,
2013-02-17 16:07:00,21.6,5.4,29.53,West,281,20.0,20.0,49,0.00,,,0.00,WeatherCatV1.02B3,2013-02-17 21:07:00,
2013-02-17 16:12:00,21.5,5.3,29.53,WNW,293,10.0,19.0,49,0.00,,,0.00,WeatherCatV1.02B3,2013-02-17 21:12:00,
2013-02-17 16:17:00,21.6,5.4,29.53,WNW,290,3.0,18.0,49,0.00,,,0.00,WeatherCatV1.02B3,2013-02-17 21:17:00,
2013-02-17 16:22:00,21.7,5.5,29.54,NNW,340,8.0,27.0,49,0.00,,,0.00,WeatherCatV1.02B3,2013-02-17 21:22:00,
2013-02-17 16:27:00,21.7,5.5,29.54,WNW,297,15.0,15.0,49,0.00,,,0.00,WeatherCatV1.02B3,2013-02-17 21:27:00,
2013-02-17 16:32:00,21.7,5.5,29.54,WNW,288,11.0,19.0,49,0.00,,,0.00,WeatherCatV1.02B3,2013-02-17 21:32:00,
2013-02-17 16:37:00,21.8,6.1,29.55,NW,309,13.0,13.0,50,0.00,,,0.00,WeatherCatV1.02B3,2013-02-17 21:37:00,
2013-02-17 16:42:00,21.8,6.1,29.55,WNW,300,21.0,21.0,50,0.00,,,0.00,WeatherCatV1.02B3,2013-02-17 21:42:00,
2013-02-17 16:47:00,21.8,5.2,29.55,WNW,285,12.0,16.0,48,0.00,,,0.00,WeatherCatV1.02B3,2013-02-17 21:47:00,
2013-02-17 16:52:00,21.8,5.2,29.56,WNW,288,6.0,16.0,48,0.00,,,0.00,WeatherCatV1.02B3,2013-02-17 21:52:00,
2013-02-17 16:57:00,21.9,5.3,29.56,NW,305,12.0,12.0,48,0.00,,,0.00,WeatherCatV1.02B3,2013-02-17 21:57:00,
2013-02-17 17:02:00,21.9,5.7,29.56,West,277,6.0,12.0,49,0.00,,,0.00,WeatherCatV1.02B3,2013-02-17 22:02:00,
2013-02-17 17:07:00,21.9,5.7,29.56,West,279,7.0,16.0,49,0.00,,,0.00,WeatherCatV1.02B3,2013-02-17 22:07:00,
2013-02-17 17:12:00,21.9,5.7,29.57,NW,304,1.0,7.0,49,0.00,,,0.00,WeatherCatV1.02B3,2013-02-17 22:12:00,
2013-02-17 17:17:00,21.9,5.3,29.57,West,263,8.0,15.0,48,0.00,,,0.00,WeatherCatV1.02B3,2013-02-17 22:17:00,
2013-02-17 17:22:00,22.0,4.9,29.57,West,277,2.0,19.0,47,0.00,,,0.00,WeatherCatV1.02B3,2013-02-17 22:22:00,
2013-02-17 17:27:00,22.0,4.9,29.57,West,279,6.0,18.0,47,0.00,,,0.00,WeatherCatV1.02B3,2013-02-17 22:27:00,
2013-02-17 17:32:00,22.1,4.5,29.58,WSW,243,8.0,19.0,46,0.00,,,0.00,WeatherCatV1.02B3,2013-02-17 22:32:00,
2013-02-17 17:37:00,22.1,4.5,29.58,WNW,286,1.0,20.0,46,0.00,,,0.00,WeatherCatV1.02B3,2013-02-17 22:37:00,
2013-02-17 17:42:00,22.2,4.6,29.58,NW,306,11.0,16.0,46,0.00,,,0.00,WeatherCatV1.02B3,2013-02-17 22:42:00,
2013-02-17 17:47:00,22.2,3.6,29.58,WNW,298,22.0,25.0,44,0.00,,,0.00,WeatherCatV1.02B3,2013-02-17 22:47:00,
2013-02-17 17:52:00,22.2,3.6,29.59,NW,321,10.0,22.0,44,0.00,,,0.00,WeatherCatV1.02B3,2013-02-17 22:52:00,
2013-02-17 17:57:00,22.1,3.6,29.59,WSW,253,13.0,25.0,44,0.00,,,0.00,WeatherCatV1.02B3,2013-02-17 22:57:00,
2013-02-17 18:02:00,22.1,3.6,29.59,NW,313,12.0,19.0,44,0.00,,,0.00,WeatherCatV1.02B3,2013-02-17 23:02:00,
2013-02-17 18:07:00,22.0,3.9,29.59,WNW,286,13.0,24.0,45,0.00,,,0.00,WeatherCatV1.02B3,2013-02-17 23:07:00,
2013-02-17 18:12:00,21.9,3.4,29.60,West,277,14.0,20.0,44,0.00,,,0.00,WeatherCatV1.02B3,2013-02-17 23:12:00,
2013-02-17 18:17:00,21.8,3.3,29.59,West,280,13.0,13.0,44,0.00,,,0.00,WeatherCatV1.02B3,2013-02-17 23:17:00,
2013-02-17 18:22:00,21.8,3.3,29.60,WNW,302,6.0,14.0,44,0.00,,,0.00,WeatherCatV1.02B3,2013-02-17 23:22:00,
2013-02-17 18:27:00,21.8,3.3,29.59,WNW,286,5.0,17.0,44,0.00,,,0.00,WeatherCatV1.02B3,2013-02-17 23:27:00,
2013-02-17 18:32:00,21.7,3.2,29.60,NW,305,11.0,15.0,44,0.00,,,0.00,WeatherCatV1.02B3,2013-02-17 23:32:00,
2013-02-17 18:37:00,21.7,3.2,29.59,WNW,287,4.0,19.0,44,0.00,,,0.00,WeatherCatV1.02B3,2013-02-17 23:37:00,
2013-02-17 18:42:00,21.7,3.2,29.59,WNW,288,11.0,19.0,44,0.00,,,0.00,WeatherCatV1.02B3,2013-02-17 23:42:00,
2013-02-17 18:47:00,21.7,3.2,29.60,WNW,303,11.0,20.0,44,0.00,,,0.00,WeatherCatV1.02B3,2013-02-17 23:47:00,
2013-02-17 18:52:00,21.6,3.1,29.60,West,279,7.0,24.0,44,0.00,,,0.00,WeatherCatV1.02B3,2013-02-17 23:52:00,
2013-02-17 18:57:00,21.6,2.6,29.60,NW,309,7.0,20.0,43,0.00,,,0.00,WeatherCatV1.02B3,2013-02-17 23:57:00,
2013-02-17 19:02:00,21.5,3.0,29.60,WNW,291,3.0,16.0,44,0.00,,,0.00,WeatherCatV1.02B3,2013-02-18 00:02:00,
2013-02-17 19:07:00,21.5,3.0,29.60,WNW,299,13.0,17.0,44,0.00,,,0.00,WeatherCatV1.02B3,2013-02-18 00:07:00,
2013-02-17 19:12:00,21.5,2.5,29.60,WNW,292,19.0,29.0,43,0.00,,,0.00,WeatherCatV1.02B3,2013-02-18 00:12:00,
2013-02-17 19:17:00,21.5,2.0,29.60,WNW,286,20.0,34.0,42,0.00,,,0.00,WeatherCatV1.02B3,2013-02-18 00:17:00,
2013-02-17 19:22:00,21.4,2.4,29.60,NW,324,4.0,19.0,43,0.00,,,0.00,WeatherCatV1.02B3,2013-02-18 00:22:00,
2013-02-17 19:27:00,21.2,2.7,29.60,WNW,282,2.0,9.0,44,0.00,,,0.00,WeatherCatV1.02B3,2013-02-18 00:27:00,
2013-02-17 19:32:00,21.2,2.2,29.60,WNW,287,11.0,18.0,43,0.00,,,0.00,WeatherCatV1.02B3,2013-02-18 00:32:00,
2013-02-17 19:37:00,21.1,1.6,29.60,WNW,286,8.0,17.0,42,0.00,,,0.00,WeatherCatV1.02B3,2013-02-18 00:37:00,
2013-02-17 19:42:00,21.1,2.1,29.60,West,281,7.0,19.0,43,0.00,,,0.00,WeatherCatV1.02B3,2013-02-18 00:42:00,
2013-02-17 19:47:00,21.0,2.1,29.61,WNW,285,13.0,22.0,43,0.00,,,0.00,WeatherCatV1.02B3,2013-02-18 00:47:00,
2013-02-17 19:52:00,20.8,1.9,29.61,WNW,285,8.0,13.0,43,0.00,,,0.00,WeatherCatV1.02B3,2013-02-18 00:52:00,
2013-02-17 19:57:00,20.7,1.8,29.61,WNW,291,4.0,12.0,43,0.00,,,0.00,WeatherCatV1.02B3,2013-02-18 00:57:00,
2013-02-17 20:02:00,20.7,1.3,29.61,WNW,301,9.0,24.0,42,0.00,,,0.00,WeatherCatV1.02B3,2013-02-18 01:02:00,
2013-02-17 20:07:00,20.7,1.8,29.62,WNW,294,6.0,19.0,43,0.00,,,0.00,WeatherCatV1.02B3,2013-02-18 01:07:00,
2013-02-17 20:12:00,20.6,1.7,29.61,West,267,13.0,14.0,43,0.00,,,0.00,WeatherCatV1.02B3,2013-02-18 01:12:00,
2013-02-17 20:17:00,20.5,1.6,29.62,NW,306,11.0,22.0,43,0.00,,,0.00,WeatherCatV1.02B3,2013-02-18 01:17:00,
2013-02-17 20:22:00,20.4,2.5,29.62,West,266,20.0,32.0,45,0.00,,,0.00,WeatherCatV1.02B3,2013-02-18 01:22:00,
2013-02-17 20:27:00,20.2,1.8,29.62,WNW,283,15.0,23.0,44,0.00,,,0.00,WeatherCatV1.02B3,2013-02-18 01:27:00,
2013-02-17 20:32:00,20.1,1.7,29.63,West,271,19.0,26.0,44,0.00,,,0.00,WeatherCatV1.02B3,2013-02-18 01:32:00,
2013-02-17 20:37:00,20.0,2.1,29.63,WNW,284,21.0,21.0,45,0.00,,,0.00,WeatherCatV1.02B3,2013-02-18 01:37:00,
2013-02-17 20:42:00,19.9,2.0,29.64,WNW,294,10.0,20.0,45,0.00,,,0.00,WeatherCatV1.02B3,2013-02-18 01:42:00,
2013-02-17 20:47:00,19.7,2.3,29.64,WNW,295,11.0,24.0,46,0.00,,,0.00,WeatherCatV1.02B3,2013-02-18 01:47:00,
2013-02-17 20:52:00,19.4,2.0,29.65,West,272,6.0,25.0,46,0.00,,,0.00,WeatherCatV1.02B3,2013-02-18 01:52:00,
2013-02-17 20:57:00,19.1,1.8,29.64,West,261,20.0,24.0,46,0.00,,,0.00,WeatherCatV1.02B3,2013-02-18 01:57:00,
2013-02-17 21:02:00,19.0,2.1,29.65,West,277,13.0,26.0,47,0.00,,,0.00,WeatherCatV1.02B3,2013-02-18 02:02:00,
2013-02-17 21:07:00,18.8,1.9,29.65,West,262,12.0,23.0,47,0.00,,,0.00,WeatherCatV1.02B3,2013-02-18 02:07:00,
2013-02-17 21:12:00,18.6,2.2,29.65,NW,309,8.0,30.0,48,0.00,,,0.00,WeatherCatV1.02B3,2013-02-18 02:12:00,
2013-02-17 21:17:00,18.4,2.0,29.65,West,281,20.0,24.0,48,0.00,,,0.00,WeatherCatV1.02B3,2013-02-18 02:17:00,
2013-02-17 21:22:00,18.1,1.8,29.65,WNW,285,9.0,24.0,48,0.00,,,0.00,WeatherCatV1.02B3,2013-02-18 02:22:00,
2013-02-17 21:27:00,18.0,1.7,29.66,WNW,290,7.0,26.0,48,0.00,,,0.00,WeatherCatV1.02B3,2013-02-18 02:27:00,
2013-02-17 21:32:00,17.9,2.0,29.66,West,273,7.0,15.0,49,0.00,,,0.00,WeatherCatV1.02B3,2013-02-18 02:32:00,
2013-02-17 21:37:00,17.8,1.9,29.67,WNW,297,20.0,25.0,49,0.00,,,0.00,WeatherCatV1.02B3,2013-02-18 02:37:00,
2013-02-17 21:42:00,17.7,2.3,29.67,WNW,302,16.0,22.0,50,0.00,,,0.00,WeatherCatV1.02B3,2013-02-18 02:42:00,
2013-02-17 21:47:00,17.6,2.2,29.67,WNW,300,16.0,24.0,50,0.00,,,0.00,WeatherCatV1.02B3,2013-02-18 02:47:00,
2013-02-17 21:52:00,17.5,2.1,29.67,West,259,19.0,19.0,50,0.00,,,0.00,WeatherCatV1.02B3,2013-02-18 02:52:00,
2013-02-17 21:57:00,17.3,1.9,29.68,WNW,289,10.0,18.0,50,0.00,,,0.00,WeatherCatV1.02B3,2013-02-18 02:57:00,
2013-02-17 22:02:00,17.2,1.8,29.68,WNW,292,7.0,14.0,50,0.00,,,0.00,WeatherCatV1.02B3,2013-02-18 03:02:00,
2013-02-17 22:07:00,17.1,2.1,29.68,West,263,9.0,22.0,51,0.00,,,0.00,WeatherCatV1.02B3,2013-02-18 03:07:00,
2013-02-17 22:12:00,16.9,1.9,29.69,West,281,10.0,17.0,51,0.00,,,0.00,WeatherCatV1.02B3,2013-02-18 03:12:00,
2013-02-17 22:17:00,16.8,1.8,29.69,WNW,283,5.0,19.0,51,0.00,,,0.00,WeatherCatV1.02B3,2013-02-18 03:17:00,
2013-02-17 22:22:00,16.6,2.1,29.70,WNW,290,0.0,10.0,52,0.00,,,0.00,WeatherCatV1.02B3,2013-02-18 03:22:00,
2013-02-17 22:27:00,16.4,1.9,29.70,West,279,7.0,14.0,52,0.00,,,0.00,WeatherCatV1.02B3,2013-02-18 03:27:00,
2013-02-17 22:32:00,16.2,1.7,29.70,NW,313,4.0,23.0,52,0.00,,,0.00,WeatherCatV1.02B3,2013-02-18 03:32:00,
2013-02-17 22:37:00,16.0,1.5,29.70,WNW,303,8.0,15.0,52,0.00,,,0.00,WeatherCatV1.02B3,2013-02-18 03:37:00,
2013-02-17 22:42:00,15.7,1.6,29.71,West,279,10.0,23.0,53,0.00,,,0.00,WeatherCatV1.02B3,2013-02-18 03:42:00,
2013-02-17 22:47:00,15.6,1.6,29.71,WNW,294,6.0,20.0,53,0.00,,,0.00,WeatherCatV1.02B3,2013-02-18 03:47:00,
2013-02-17 22:52:00,15.5,1.5,29.72,WNW,292,8.0,26.0,53,0.00,,,0.00,WeatherCatV1.02B3,2013-02-18 03:52:00,
2013-02-17 22:57:00,15.4,1.4,29.72,WSW,241,8.0,24.0,53,0.00,,,0.00,WeatherCatV1.02B3,2013-02-18 03:57:00,
2013-02-17 23:02:00,15.4,1.8,29.72,WNW,289,20.0,20.0,54,0.00,,,0.00,WeatherCatV1.02B3,2013-02-18 04:02:00,
2013-02-17 23:07:00,15.3,1.3,29.72,WNW,284,7.0,17.0,53,0.00,,,0.00,WeatherCatV1.02B3,2013-02-18 04:07:00,
2013-02-17 23:12:00,15.2,1.6,29.73,West,265,9.0,22.0,54,0.00,,,0.00,WeatherCatV1.02B3,2013-02-18 04:12:00,
2013-02-17 23:19:00,15.2,1.6,29.73,NW,306,18.0,18.0,54,0.00,,,0.00,WeatherCatV1.02B3,2013-02-18 04:19:00,
2013-02-17 23:24:00,15.1,1.5,29.73,WNW,294,14.0,23.0,54,0.00,,,0.00,WeatherCatV1.02B3,2013-02-18 04:24:00,
2013-02-17 23:29:00,15.1,1.5,29.73,WNW,288,11.0,13.0,54,0.00,,,0.00,WeatherCatV1.02B3,2013-02-18 04:29:00,
2013-02-17 23:34:00,15.0,1.8,29.73,West,281,9.0,17.0,55,0.00,,,0.00,WeatherCatV1.02B3,2013-02-18 04:34:00,
2013-02-17 23:39:00,14.9,1.7,29.74,WNW,296,16.0,22.0,55,0.00,,,0.00,WeatherCatV1.02B3,2013-02-18 04:39:00,
2013-02-17 23:44:00,14.8,1.2,29.74,WNW,289,1.0,14.0,54,0.00,,,0.00,WeatherCatV1.02B3,2013-02-18 04:44:00,
2013-02-17 23:49:00,14.8,1.6,29.74,West,279,8.0,13.0,55,0.00,,,0.00,WeatherCatV1.02B3,2013-02-18 04:49:00,
2013-02-17 23:54:00,14.7,1.5,29.74,NNW,329,5.0,19.0,55,0.00,,,0.00,WeatherCatV1.02B3,2013-02-18 04:54:00,
2013-02-17 23:59:00,14.6,1.4,29.74,WNW,302,10.0,21.0,55,0.00,,,0.00,WeatherCatV1.02B3,2013-02-18 04:59:00,